Location: L�beck
(53.8752°N, 10.6787°E)
Time: 11:34:28
(UTC+01:00)

ISS - Pass Details

Date: 11 January 2018
Orbit: 402 x 407 km, 51.6° (Epoch: 22 January)

Event Time Altitude Azimuth Distance (km) Brightness Sun altitude
Exits shadow 05:41:09 28° 144° (SE) 808 -2.0 -23.9°
Drops below altitude 10° 05:42:59 10° 124° (SE) 1,467 -0.2 -23.6°
Sets 05:45:07 0° 117° (ESE) 2,326 1.2 -23.3°
